This demonstration page uses our WeatherBlox Daily Observations layout. Learn more.

Left ArrowRight Arrow

39.01783, -85.05884

Hourly Observations for April 12, 2021

Temp ( °F °C ) Dew Point ( °F °C ) Humidity (%) Winds ( mph kmh ) Pressure ( in mb ) Visibility ( mi km ) Precip ( " mm )
12:52 am 00:52 Cloudy 48 8.9 45 7.2 89 89 WSW 8 13 29.61 1003 10 16.0934 0 0
1:52 am 01:52 Cloudy 48 8.9 45 7.2 89 89 WSW 7 11 29.61 1003 10 16.0934 0 0
2:52 am 02:52 Cloudy 49 9.4 45 7.2 86 86 WSW 8 13 29.61 1003 10 16.0934 0 0
3:52 am 03:52 Cloudy 49 9.4 45 7.2 86 86 W 12 19 29.63 1003 10 16.0934 0 0
4:52 am 04:52 Cloudy 49 9.4 46 7.8 90 90 W 13 20 29.64 1004 10 16.0934 0 0
5:52 am 05:52 Cloudy 49 9.4 46 7.8 90 90 WSW 5 7 29.66 1004 10 16.0934 0 0
6:52 am 06:52 Cloudy with Mist and Fog 49 9.4 46 7.8 90 90 WSW 6 9 29.68 1005 6 9.65604 0 0
7:52 am 07:52 Cloudy 50 10 47 8.3 89 89 WSW 6 9 29.71 1006 7 11.26538 0 0
8:52 am 08:52 Cloudy with Mist and Fog 50 10 47 8.3 89 89 SW 8 13 29.73 1007 6 9.65604 0 0
9:52 am 09:52 Cloudy 52 11.1 48 8.9 86 86 W 9 15 29.75 1008 8 12.87472 0 0
10:52 am 10:52 Cloudy 52 11.1 47 8.3 83 83 W 13 20 29.77 1008 8 12.87472 0 0
11:11 am 11:11 Cloudy 53 11.7 47 8.3 80 80 W 12 19 29.78 1009 10 16.0934 0 0
11:14 am 11:14 Cloudy 53 11.7 47 8.3 80 80 W 10 17 29.78 1009 10 16.0934 0 0
11:16 am 11:16 Cloudy 53 11.7 48 8.9 83 83 W 8 13 29.78 1009 10 16.0934 0 0
11:52 am 11:52 Cloudy 54 12.2 48 8.9 80 80 W 10 17 29.78 1009 10 16.0934 0 0
11:55 am 11:55 Cloudy 55 12.8 48 8.9 77 77 W 12 19 29.79 1009 10 16.0934 0 0
12:52 pm 12:52 Cloudy 57 13.9 47 8.3 69 69 W 17 28 29.8 1009 10 16.0934 0 0
1:42 pm 13:42 Mostly Cloudy 59 15 47 8.3 64 64 WNW 17 28 29.81 1010 10 16.0934 0 0
1:52 pm 13:52 Partly Cloudy 59 15 48 8.9 67 67 W 17 28 29.81 1009 10 16.0934 0 0
2:13 pm 14:13 Mostly Cloudy 59 15 46 7.8 62 62 W 20 31 29.82 1010 10 16.0934 0 0
2:38 pm 14:38 Mostly Cloudy 61 16.1 46 7.8 58 58 W 16 26 29.83 1010 10 16.0934 0 0
2:52 pm 14:52 Mostly Cloudy 60 15.6 45 7.2 58 58 WNW 18 30 29.83 1010 10 16.0934 0 0
3:52 pm 15:52 Partly Cloudy 64 17.8 45 7.2 50 50 WNW 16 26 29.83 1010 10 16.0934 0 0
4:52 pm 16:52 Partly Cloudy 65 18.3 44 6.7 47 47 WNW 13 20 29.84 1011 10 16.0934 0 0
5:52 pm 17:52 Mostly Sunny 66 18.9 41 5 40 40 NW 15 24 29.85 1011 10 16.0934 0 0
6:52 pm 18:52 Mostly Sunny 66 18.9 40 4.4 39 39 WNW 12 19 29.87 1011 10 16.0934 0 0
7:52 pm 19:52 Mostly Sunny 63 17.2 40 4.4 43 43 NW 9 15 29.89 1012 10 16.0934 0 0
8:52 pm 20:52 Mostly Clear 60 15.6 40 4.4 47 47 NW 6 9 29.92 1013 10 16.0934 0 0
9:52 pm 21:52 Clear 56 13.3 41 5 57 57 WNW 6 9 29.95 1014 10 16.0934 0 0
10:52 pm 22:52 Clear 54 12.2 41 5 62 62 WNW 5 7 29.96 1015 10 16.0934 0 0
11:52 pm 23:52 Mostly Clear 51 10.6 41 5 69 69 WNW 6 9 29.98 1015 10 16.0934 0 0

Powered by AerisWeather